La Push, WA

9:16 PM PDT on July 27, 2016 (GMT -0700)
Quillayute

Weather History for KUIL - March, 2014

Change the Weather History Date:

Wednesday, March 12, 2014

  Actual Average Record
Temperature  
Mean Temperature 46 °F 44 °F  
Max Temperature 60 °F 51 °F 67 °F (1992)
Min Temperature 31 °F 37 °F 23 °F (1969)
Degree Days  
Heating Degree Days 19 21  
Month to date heating degree days 218 260  
Since 1 July heating degree days 3412 4105  
Cooling Degree Days 0 0  
Month to date cooling degree days 0 0  
Year to date cooling degree days 0 0  
Moisture  
Dew Point 37 °F    
Average Humidity 72    
Maximum Humidity 100    
Minimum Humidity 43    
Precipitation  
Precipitation 0.00 in 0.35 in 5.47 in (2013)
Month to date precipitation 7.88 4.31  
Year to date precipitation 30.45 29.27  
Sea Level Pressure  
Sea Level Pressure 30.29 in    
Wind  
Wind Speed 3 mph (NNW)    
Max Wind Speed 13 mph    
Max Gust Speed 19 mph    
Visibility 6 miles    
Events      
T = Trace of Precipitation, MM = Missing Value Source: NWS Daily Summary

Daily Weather History Graph

Daily Weather History Graph

Search for Another Location

Airport or City:

Trip Planner

Search our weather history database for the weather conditions in past years. The results will help you decide how hot, cold, wet, or windy it might be!

Date:

Astronomy

Mar. 12, 2014 Rise Set
Actual Time 7:37 AM PDT 7:19 PM PDT
Civil Twilight 7:06 AM PDT 7:50 PM PDT
Nautical Twilight 6:30 AM PDT 8:26 PM PDT
Astronomical Twilight 5:53 AM PDT 9:03 PM PDT
Moon 3:43 PM PDT (3/12) 5:25 AM PDT (3/12)
Length of Visible Light 12h 44m
Length of Day
11h 42m
Waxing Gibbous, 86% of the Moon is Illuminated
Mar 12
Waxing Gibbous
Mar 16
Full
Mar 23
Last Quarter
Mar 30
New
Apr 7
First Quarter

Hourly Weather History & Observations

Time (PDT) Temp. Windchill Dew Point Humidity Pressure Visibility Wind Dir Wind Speed Gust Speed Precip Events Conditions
12:53 AM 35.1 °F 32.2 °F 35.1 °F 100% 30.42 in 7.0 mi ENE 3.5 mph - N/A   Clear
1:53 AM 35.1 °F - 34.0 °F 96% 30.41 in 7.0 mi Calm Calm - N/A   Clear
2:53 AM 34.0 °F 31.0 °F 33.1 °F 96% 30.39 in 7.0 mi East 3.5 mph - N/A   Clear
3:53 AM 35.1 °F - 34.0 °F 96% 30.37 in 7.0 mi Calm Calm - N/A   Clear
4:53 AM 32.0 °F - 32.0 °F 100% 30.36 in 6.0 mi Calm Calm - N/A   Clear
5:53 AM 34.0 °F 29.8 °F 33.1 °F 96% 30.35 in 7.0 mi East 4.6 mph - N/A   Clear
6:53 AM 30.9 °F - 30.9 °F 100% 30.34 in 7.0 mi Calm Calm - N/A   Clear
7:53 AM 34.0 °F - 33.1 °F 96% 30.32 in 6.0 mi Calm Calm - N/A   Clear
8:53 AM 37.9 °F - 36.0 °F 93% 30.33 in 6.0 mi Calm Calm - N/A   Clear
9:53 AM 45.0 °F - 39.0 °F 80% 30.34 in 6.0 mi Calm Calm - N/A   Haze
10:53 AM 50.0 °F - 39.9 °F 68% 30.33 in 7.0 mi Calm Calm - N/A   Clear
11:53 AM 55.0 °F - 37.9 °F 53% 30.31 in 7.0 mi NNW 4.6 mph - N/A   Clear
12:53 PM 57.0 °F - 36.0 °F 45% 30.27 in 7.0 mi SE 3.5 mph - N/A   Clear
1:53 PM 57.9 °F - 37.9 °F 47% 30.26 in 6.0 mi West 8.1 mph - N/A   Haze
2:53 PM 57.9 °F - 37.0 °F 46% 30.25 in 5.0 mi WNW 9.2 mph - N/A   Haze
3:53 PM 57.0 °F - 35.1 °F 44% 30.24 in 5.0 mi West 9.2 mph - N/A   Haze
4:53 PM 55.0 °F - 37.9 °F 53% 30.23 in 5.0 mi NNW 8.1 mph - N/A   Haze
5:53 PM 51.1 °F - 39.9 °F 66% 30.22 in 5.0 mi NW 4.6 mph - N/A   Haze
6:53 PM 48.9 °F - 39.9 °F 71% 30.22 in 5.0 mi NW 4.6 mph - N/A   Haze
7:53 PM 46.0 °F 43.9 °F 42.1 °F 86% 30.21 in 6.0 mi WNW 4.6 mph - N/A   Mostly Cloudy
8:53 PM 43.0 °F - 42.1 °F 97% 30.20 in 6.0 mi Calm Calm - N/A   Partly Cloudy
9:53 PM 39.9 °F 36.7 °F 39.0 °F 97% 30.20 in 6.0 mi NNW 4.6 mph - N/A   Clear
10:29 PM 41.0 °F - 39.9 °F 96% 30.20 in 6.0 mi Calm Calm - N/A   Mostly Cloudy
10:53 PM 41.0 °F - 39.9 °F 96% 30.20 in 6.0 mi Calm Calm - N/A   Overcast
11:53 PM 41.0 °F - 39.9 °F 96% 30.21 in 6.0 mi Calm Calm - N/A   Overcast